• MPC Preparation (Info)

  • MPEC 2022-U36 : 2022 UW

    The following Minor Planet Electronic Circular may be linked-to from your own Web pages, but must not otherwise be redistributed electronically.

    A form allowing access to any MPEC is at the bottom of this page.


    Read MPEC 2022-U35 Read MPEC 2022-U37


    M.P.E.C. 2022-U36                              Issued 2022 October 18, 22:37 UT
    
         The Minor Planet Electronic Circulars contain information on unusual
             minor planets and routine data on comets.  They are published
        on behalf of Division F of the International Astronomical Union by the
              Minor Planet Center, Smithsonian Astrophysical Observatory,
                              Cambridge, MA 02138, U.S.A.
    
                 Prepared using the Tamkin Foundation Computer Network
    
                                  MPC@CFA.HARVARD.EDU
                URL https://www.minorplanetcenter.net/    ISSN 1523-6714
    
                                     2022 UW                                 
    
    
    Observations:
         K22U00W  C2022 09 22.34432323 55 24.399+20 21 27.94         22.66GVEU036F52
         K22U00W  C2022 09 22.35585223 55 25.400+20 21 31.73         22.51GVEU036F52
         K22U00W  C2022 10 02.46658600 19 05.497+20 42 11.09         21.98GVEU036F52
         K22U00W  C2022 10 02.47883900 19 07.608+20 42 09.67         21.62GVEU036F52
         K22U00W  C2022 10 02.49107600 19 09.779+20 42 07.71         21.66GVEU036F52
         K22U00W  C2022 10 02.50343100 19 11.967+20 42 05.42         21.38GVEU036F52
         K22U00W  C2022 10 14.49093701 23 07.868+18 24 17.10         20.75GVEU036F52
         K22U00W  C2022 10 14.50382301 23 13.757+18 23 55.45         20.93GVEU036F52
         K22U00W  C2022 10 14.51675501 23 19.702+18 23 33.40         21.11GVEU036F52
         K22U00W  C2022 10 14.52971701 23 25.721+18 23 11.08         20.97GVEU036F52
         K22U00W* C2022 10 17.31858001 48 52.758+16 49 55.67         20.01GVEU036G96
         K22U00W  C2022 10 17.32418001 48 55.955+16 49 42.24         20.21GVEU036G96
         K22U00W  C2022 10 17.32976101 48 59.108+16 49 28.67         20.38GVEU036G96
         K22U00W mC2022 10 17.40311601 49 41.182+16 46 26.94         20.85GVEU036I52
         K22U00W mC2022 10 17.40352901 49 41.452+16 46 25.46         20.02GVEU036I52
         K22U00W mC2022 10 17.40394301 49 41.624+16 46 24.85         20.37GVEU036I52
         K22U00W mC2022 10 17.40435601 49 41.905+16 46 23.52         20.42GVEU036I52
         K22U00W KC2022 10 17.94217801 55 19.17 +16 23 26.8          19.5 GVEU036104
         K22U00W KC2022 10 17.94720301 55 22.16 +16 23 13.2          19.6 GVEU036104
         K22U00W KC2022 10 17.95160001 55 24.79 +16 23 01.3          20.1 GVEU036104
         K22U00W hC2022 10 17.97356801 55 37.82 +16 22 01.7          20.3 GVEU036L01
         K22U00W hC2022 10 17.97440901 55 38.29 +16 21 59.3          20.4 GVEU036L01
         K22U00W hC2022 10 17.97693501 55 39.90 +16 21 52.8          20.1 GVEU036L01
         K22U00W mC2022 10 18.47131702 00 53.478+15 59 37.25         20.25GVEU036I52
         K22U00W mC2022 10 18.47490502 00 55.721+15 59 27.38         19.84GVEU036I52
         K22U00W mC2022 10 18.47519002 00 55.897+15 59 25.48         20.79GVEU036I52
    
    Observer details:
    104 San Marcello Pistoiese.  Observers P. Bacci, M. Maestripieri.  Measurers
        P. Bacci, L. Tesi, G. Fagioli.  0.60-m F4 Reflector + CCD.
    F52 Pan-STARRS 2, Haleakala.  Observers J. Bulger, K. Chambers, T. Dukes, T.
        Lowe, A. Schultz, I. Smith.  Measurers S. Chastel, J. Fairlamb, M. Huber,
        Y. Ramanjooloo, R. Wainscoat, R. Weryk.  1.8-m Ritchey-Chretien + CCD.
    G96 Mt. Lemmon Survey.  Observer A. Serrano.  Measurers E. J. Christensen, D.
        Fay, J. B. Fazekas, D. C. Fuls, A. R. Gibbs, A. D. Grauer, H. Groeller, J.
        K. Hogan, R. A. Kowalski, S. M. Larson, G. J. Leonard, D. Rankin, R. L.
        Seaman, A. Serrano, F. C. Shelly, K. W. Wierzchos.  1.5-m reflector + 10K
        CCD.
    I52 Steward Observatory, Mt. Lemmon Station.  Observers R. A. Kowalski, D.
        Rankin.  Measurers E. J. Christensen, D. Fay, J. B. Fazekas, D. C. Fuls,
        A. R. Gibbs, A. D. Grauer, H. Groeller, J. K. Hogan, R. A. Kowalski, S. M.
        Larson, G. J. Leonard, D. Rankin, R. L. Seaman, A. Serrano, F. C. Shelly,
        K. W. Wierzchos.  1.0-m prime focus + CCD.
    L01 Visnjan Observatory, Tican.  Observer K. Korlevic.  1.0-m f/2.9 reflector
        + CCD.
    
    Orbital elements:
    2022 UW                                                  Earth MOID = 0.0623 AU
    Epoch 2022 Aug. 9.0 TT = JDT 2459800.5                  Veres                   
    M 336.60931              (2000.0)            P               Q                  
    n   0.24440748     Peri.  206.78194     +0.58465521     -0.80889629             
    a   2.5335320      Node   207.57278     +0.76633628     +0.57579339             
    e   0.5917808      Incl.    7.71885     +0.26628368     +0.11894860             
    P   4.03           H   24.92          G   0.15           U   6                  
    Residuals in seconds of arc
    220922 F52  0.3-  0.0     221014 F52  0.0   0.1-    221017 104  0.1-  0.0
    220922 F52  0.0   0.1-    221017 G96  0.1+  0.2-    221017 104  0.3-  0.4-
    221002 F52  0.4+  0.1-    221017 G96  0.2+  0.0     221017 L01  0.4+  0.6-
    221002 F52  0.1-  0.3+    221017 G96  0.1-  0.0     221017 L01  0.1-  0.8-
    221002 F52  0.1+  0.2+    221017 I52  0.1-  0.1+    221017 L01  1.1+  0.6-
    221002 F52  0.2+  0.1-    221017 I52  0.3+  0.3-    221018 I52  0.4+  0.5+
    221014 F52  0.1+  0.0     221017 I52  0.7-  0.1+    221018 I52  0.1-  1.2+
    221014 F52  0.2-  0.1+    221017 I52  0.0   0.2-    221018 I52  0.1-  0.1+
    221014 F52  0.4-  0.0     221017 104  0.4+  0.6+
    
    Ephemeris:
    2022 UW                  a,e,i = 2.53, 0.59, 8                   q = 1.0342
    Date    TT    R. A. (2000) Decl.     Delta      r    Elong.  Phase     V
    2022 09 18    23 49 01.2 +19 55 33   0.2608  1.2505   157.9    17.6    23.4
    ...
    2022 10 03    00 20 52.9 +20 41 06   0.1634  1.1579   162.7    14.9    22.1
    ...
    2022 10 11    00 58 09.5 +19 37 19   0.1208  1.1165   167.1    11.5    21.3
    ...
    2022 10 17    01 45 42.2 +17 02 55   0.09456 1.0902   170.7     8.5    20.6
    2022 10 18    01 55 54.1 +16 21 41   0.09086 1.0862   170.6     8.6    20.5
    2022 10 19    02 06 49.9 +15 34 40   0.08739 1.0824   170.1     9.1    20.4
    ...
    2022 10 25    03 27 04.5 +08 33 26   0.07288 1.0623   157.5    21.0    20.4
    ...
    2022 11 02    05 27 23.2 -04 12 46   0.07470 1.0435   131.6    45.3    21.1
    ...
    2022 11 17    07 37 11.5 -16 06 29   0.1217  1.0357   109.4    64.2    22.7
    
    M. P. C. Staff               (C) Copyright 2022 MPC           M.P.E.C. 2022-U36
    


    Read MPEC 2022-U35 Read MPEC 2022-U37


    MPEC number:

    Enter an MPEC number in one of the following forms:

    • 1997-B01 (the full form)
    • J97B01 (the packed version of the full form)
    • B01 (the abbreviated form)